Погода в Ленине

Россия / Республика Татарстан     55°11′57″N   51°14′58″E
темп.,
°C
ветер,
м/с
пор.,
м/с
влажн.,
%
обл.,
%
осадки,
мм/ч
давл.,
гПа
погр.,
м
19 апреля, пн
пн1900:00+5всв71256100 0.0 1025706
03:00+2всв7135674 0.0 1026565
06:00+1всв714608 0.0 1027659
09:00+4всв91149100 0.0 1028985
12:00+7в9103919 0.0 10281455
15:00+8в8103520 0.0 10281678
18:00+6всв7103414 0.0 10281013
21:00+4всв714385 0.0 1030600
20 апреля, вт
вт2000:00+2в612451 0.0 1031386
03:000в511580 0.0 1032267
06:00+1вюв511490 0.0 1033451
09:00+5вюв79300 0.0 10331045
12:00+8вюв68250 0.0 10321365
15:00+10вюв67240 0.0 10301451
18:00+8вюв58330 0.0 1029410
21:00+5вюв51244100 0.0 1029295
21 апреля, ср
ср2100:00+4вюв5124897 0.0 1029309
03:00+3юв61449100 0.0 1028414
06:00+3юв81647100 0.0 1027663
09:00+6ююв91638100 0.0 1027861
12:00+8ююв81535100 0.0 10261106
15:00+6ю81453100 0.1 1026965
18:00+4ююв81674100 0.6 1026835
21:00+3ююв71696100 2.4 1026732
22 апреля, чт
чт2200:00+2ююв71596100 4.8 1025722
03:00+3ююв71497100 8.3 1025710
06:00+3ю71497100 2.1 1025674
09:00+3ю71397100 2.8 1026605
12:00+5ю71192100 0.1 1026561
15:00+6ю6108797 0.1 1027605
18:00+6ю61189100 0.0 1027441
21:00+5ююв61089100 0.0 1028367
23 апреля, пт
пт2300:00+4ююв5992100 0.0 1027366
03:00+3ю4895100 0.0 1027277
06:00+4ю4691100 0.0 1027452
09:00+6ююв348999 0.0 1027483
12:00+6юв3386100 0.0 1026602
15:00+7вюв347799 0.0 1026774
18:00+7вюв3577100 0.0 1025471
21:00+5всв3587100 0.0 1024112